Flag for Finland Weather past 2 weeks in Kuopio, Finland

Now
36 °F

Light rain. Low clouds.


Feels Like: 24 °F
Forecast: 36 / 40 °F
Wind: 21 mph from North

Location: Kuopio Airport

Current Time: Sep 23, 2014 at 6:31:06 PM

Latest Report: Sep 23, 2014 at 5:50 PM


Visibility: 4 mi

Pressure: 29.62 "Hg

Humidity: 87%

Dew point: 32 °F

Location of KuopioLocation

Historic Weather in Kuopio — Graph

°F

Kuopio temperature yesterday

Maximum temperature yesterday: 54 °F (at 12:20 AM)
Minimum temperature yesterday: 36 °F (at 11:20 PM)
Average temperature yesterday: 43 °F

Past Weeks' High & Low Weather Summary

 TemperatureHumidityPressure
High70 °F (Sep 9, 1:50 PM)100% (Sep 9, 4:20 AM)30.45 "Hg (Sep 9, 4:20 AM)
Low34 °F (Sep 23, 12:50 AM)36% (Sep 15, 4:20 PM)29.62 "Hg (Sep 23, 2:50 PM)
Average53 °F82%30.13 "Hg
* Reported Sep 8 5:20 PM — Sep 23 5:20 PM, Kuopio, Weather by CustomWeather, © 2014

Note: Actual official high and low records may vary slightly from our data, if they occured in-between our weather recording intervals... More about our weather records

Advertising

Kuopio weather history for previous 24 hours

 ConditionsComfort  
Time TempWeatherWind HumidityBarometerVisibility
5:20 PM
Sep 23
36 °FLight rain. Low clouds.22 mph93%29.62 "Hg6 mi
4:50 PM36 °FLight rain. Low clouds.22 mph93%29.62 "Hg4 mi
4:20 PM36 °FLight rain. Overcast.20 mph87%29.62 "Hg4 mi
3:50 PM36 °FLight snow. Partly sunny.22 mph87%29.62 "Hg3 mi
3:20 PM34 °FLight snow. Partly sunny.23 mph93%29.62 "Hg3 mi
2:50 PM34 °FLight snow. Partly sunny.22 mph93%29.62 "Hg4 mi
2:20 PM34 °FLight snow. Mostly cloudy.20 mph93%29.65 "Hg2 mi
1:20 PM34 °FLight snow. Broken clouds.20 mph93%29.65 "Hg2 mi
12:45 PM34 °FLight snow. Partly sunny.22 mph93%29.65 "Hg2 mi
12:20 PM34 °FLight snow. Mostly cloudy.21 mph93%29.65 "Hg4 mi
11:50 AM34 °FLight snow. Mostly cloudy.18 mph93%29.65 "Hg4 mi
11:20 AM34 °FLight snow. Partly sunny.17 mph93%29.68 "Hg1 mi
10:50 AM34 °FLight snow. Partly sunny.17 mph93%29.68 "Hg4 mi
10:20 AM34 °FLight snow. Broken clouds.15 mph93%29.68 "Hg3 mi
9:50 AM34 °FLight snow. Broken clouds.16 mph93%29.68 "Hg4 mi
9:20 AM34 °FSnow flurries. Cloudy.17 mph93%29.68 "Hg3 mi
8:50 AM36 °FLight rain. Broken clouds.16 mph81%29.71 "Hg4 mi
8:20 AM36 °FSnow flurries. Broken clouds.16 mph81%29.71 "HgN/A
7:50 AM36 °FSnow flurries. Overcast.14 mph87%29.71 "HgN/A
7:20 AM34 °FLight rain. Overcast.14 mph93%29.71 "HgN/A
6:50 AM34 °FLight snow. Low clouds.15 mph93%29.71 "Hg4 mi
6:20 AM34 °FLight snow. Low clouds.14 mph93%29.71 "Hg2 mi
5:50 AM34 °FLight snow. Low clouds.14 mph93%29.74 "Hg2 mi
5:20 AM34 °FLight snow. Low clouds.15 mph93%29.74 "Hg5 mi
4:50 AM34 °FLight snow. Low clouds.13 mph93%29.74 "Hg2 mi
4:20 AM34 °FLight snow. Low clouds.14 mph93%29.74 "Hg2 mi
3:50 AM34 °FLight rain. Low clouds.13 mph93%29.74 "Hg2 mi
3:20 AM34 °FLight rain. Low clouds.14 mph93%29.77 "HgN/A
2:50 AM36 °FLight rain. Low clouds.15 mph87%29.77 "HgN/A
2:20 AM34 °FLight rain. Mostly cloudy.14 mph93%29.77 "Hg6 mi
1:50 AM36 °FLight rain. Mostly cloudy.14 mph87%29.77 "HgN/A
1:20 AM34 °FLight rain. Overcast.13 mph93%29.77 "HgN/A
12:50 AM34 °FLight rain. Overcast.12 mph93%29.77 "HgN/A
12:20 AM36 °FLight rain. Overcast.13 mph87%29.80 "HgN/A
11:50 PM
Sep 22
36 °FLight rain. Overcast.9 mph87%29.80 "Hg6 mi
11:20 PM36 °FLight rain. Overcast.13 mph87%29.80 "HgN/A
10:50 PM37 °FScattered showers. Overcast.12 mph81%29.80 "HgN/A
10:20 PM37 °FScattered showers. Overcast.13 mph75%29.80 "HgN/A
9:50 PM37 °FScattered showers. Overcast.14 mph75%29.80 "HgN/A
9:20 PM37 °FScattered showers. Overcast.13 mph75%29.80 "HgN/A
8:50 PM37 °FScattered showers. Overcast.14 mph75%29.80 "HgN/A
8:20 PM37 °FSprinkles. Overcast.16 mph75%29.83 "HgN/A
7:50 PM37 °FLight rain. Overcast.15 mph75%29.83 "HgN/A
7:20 PM37 °FLight rain. Overcast.15 mph75%29.83 "HgN/A
6:50 PM39 °FLight rain. Overcast.16 mph70%29.83 "HgN/A
6:20 PM39 °FOvercast.14 mph75%29.80 "HgN/A
Weather by CustomWeather, © 2014

See weather overviewHow to use our weather pages